User: anonymous   Login
Location: Prague
(50.0830°N, 14.4670°E)
Time: 20:25:56
(UTC+01:00)
Language:

CUTE-I - Orbit

View from above orbital plane
View from above orbital plane
View from above satellite
View from above satellite

Ground track
Ground track

The orbit data is extracted from the following two-line orbital elements,

1 27844U 03031E   21341.45900816  .00000082  00000-0  56725-4 0  9995
2 27844  98.6803 347.0522 0008951 301.2850  58.7451 14.22356517956574
Epoch (UTC): 07 December 2021 11:00:58
Eccentricity: 0.0008951
inclination: 98.6803°
perigee height: 811 km
apogee height: 824 km
right ascension of ascending node: 347.0522°
argument of perigee: 301.2850°
revolutions per day: 14.22356517
mean anomaly at epoch: 58.7451°
orbit number at epoch: 95657

The dashed part of the orbit path shows where the satellite is in the earth's shadow,  

DLR